This is the latest recevied weather packets stored in our database for station/object VE6KEE-13. If no packets are shown the sender has not sent any weather packets the latest 10 day(s).
| Time | Temp. | Humidity | Pressure | Rain* | Wind** | Luminosity | Snow |
|---|---|---|---|---|---|---|---|
| 1778145770 | 8.33° C | 34% | 1012.3 hPa | 0 mm | - | - | - |
| 1778144867 | 8.33° C | 33% | 1012.3 hPa | 0 mm | - | - | - |
| 1778143070 | 8.89° C | 33% | 1012.3 hPa | 0 mm | - | - | - |
| 1778142165 | 8.89° C | 34% | 1012 hPa | 0 mm | - | - | - |
| 1778141265 | 8.89° C | 34% | 1011.8 hPa | 0 mm | - | - | - |
| 1778140365 | 8.89° C | 34% | 1011.6 hPa | 0 mm | - | - | - |
| 1778139462 | 8.89° C | 34% | 1011.5 hPa | 0 mm | - | - | - |
| 1778138565 | 8.89° C | 34% | 1011.6 hPa | 0 mm | - | - | - |
| 1778137670 | 8.33° C | 34% | 1011.6 hPa | 0 mm | - | - | - |
| 1778136759 | 8.33° C | 37% | 1010.9 hPa | 0 mm | - | - | - |
| 1778135859 | 8.33° C | 33% | 1011.1 hPa | 0 mm | - | - | - |
| 1778134958 | 8.33° C | 31% | 1010.8 hPa | 0 mm | - | - | - |
| 1778134058 | 8.33° C | 31% | 1011.1 hPa | 0 mm | - | - | - |
| 1778133159 | 8.89° C | 32% | 1011.6 hPa | 0 mm | - | - | - |
| 1778132264 | 8.89° C | 31% | 1011.6 hPa | 0 mm | - | - | - |
| 1778131355 | 8.89° C | 31% | 1011.3 hPa | 0 mm | - | - | - |
| 1778130459 | 10° C | 32% | 1011.9 hPa | 0 mm | - | - | - |
| 1778129554 | 10° C | 25% | 1012 hPa | 0 mm | - | - | - |
| 1778128653 | 10° C | 25% | 1011.7 hPa | 0 mm | - | - | - |
| 1778127754 | 10° C | 24% | 1011.5 hPa | 0 mm | - | - | - |
| 1778126859 | 10.56° C | 24% | 1011.9 hPa | 0 mm | - | - | - |
| 1778125953 | 10.56° C | 25% | 1011.4 hPa | 0 mm | - | - | - |
| 1778125053 | 10.56° C | 25% | 1011.3 hPa | 0 mm | - | - | - |
| 1778124149 | 11.11° C | 25% | 1010.4 hPa | 0 mm | - | - | - |
| 1778123248 | 11.11° C | 25% | 1010.5 hPa | 0 mm | - | - | - |
* Rain since midnight (hover to see other rain measurements)
** Current wind speed in m/s (hover to see current wind gust speed)